Hurlburt Field, FL

10:20 PM CDT on March 22, 2017 (GMT -0500)
Hurlburt

Weather History for KHRT - March, 2014

Change the Weather History Date:

Monday, March 24, 2014

  Actual Average Record
Temperature  
Mean Temperature 58 °F -  
Max Temperature 65 °F 68 °F 83 °F (2011)
Min Temperature 53 °F 50 °F 37 °F (2002)
Degree Days  
Heating Degree Days 6    
Growing Degree Days 8 (Base 50)    
Moisture  
Dew Point 43 °F    
Average Humidity 55    
Maximum Humidity 70    
Minimum Humidity 40    
Precipitation  
Precipitation 0.00 in - - ()
Sea Level Pressure  
Sea Level Pressure 30.03 in    
Wind  
Wind Speed 7 mph (East)    
Max Wind Speed 12 mph    
Max Gust Speed -    
Visibility 10 miles    
Events Rain    
Averages and records for this station are not official NWS values.
T = Trace of Precipitation, MM = Missing Value Source: NWS Daily Summary

Daily Weather History Graph

Daily Weather History Graph

Search for Another Location

Airport or City:

Trip Planner

Search our weather history database for the weather conditions in past years. The results will help you decide how hot, cold, wet, or windy it might be!

Date:

Astronomy

Mar. 24, 2014 Rise Set
Actual Time 6:45 AM CDT 7:00 PM CDT
Civil Twilight 6:21 AM CDT 7:24 PM CDT
Nautical Twilight 5:53 AM CDT 7:52 PM CDT
Astronomical Twilight 5:25 AM CDT 8:21 PM CDT
Moon 1:52 AM CDT (3/24) 12:47 PM CDT (3/24)
Length of Visible Light 13h 03m
Length of Day
12h 15m
Last Quarter, 43% of the Moon is Illuminated
Mar 24
Last Quarter
Mar 30
New
Apr 7
First Quarter
Apr 15
Full
Apr 22
Last Quarter

Hourly Weather History & Observations

Time (CDT) Temp. Dew Point Humidity Pressure Visibility Wind Dir Wind Speed Gust Speed Precip Events Conditions
12:14 AM 57.2 °F 44.6 °F 63% 30.13 in 10.0 mi NNE 10.4 mph - N/A   Light Drizzle
12:58 AM 56.5 °F 41.2 °F 57% 30.12 in 10.0 mi NE 9.2 mph - 0.00 in   Light Drizzle
1:23 AM 55.4 °F 41.0 °F 58% 30.10 in 10.0 mi NNE 6.9 mph - N/A   Mostly Cloudy
1:44 AM 55.4 °F 41.0 °F 58% 30.09 in 10.0 mi NNE 9.2 mph - N/A   Light Drizzle
1:56 AM 55.4 °F 41.0 °F 58% 30.11 in 10.0 mi North 9.2 mph - N/A   Scattered Clouds
1:58 AM 55.4 °F 41.0 °F 58% 30.12 in 10.0 mi NNE 9.2 mph - 0.00 in   Scattered Clouds
2:13 AM 55.4 °F 41.0 °F 58% 30.09 in 10.0 mi NNE 9.2 mph - N/A   Light Drizzle
2:23 AM 55.4 °F 41.0 °F 58% 30.10 in 10.0 mi NNE 6.9 mph - N/A   Clear
2:46 AM 55.4 °F 41.0 °F 58% 30.10 in 10.0 mi NNE 6.9 mph - N/A   Light Drizzle
2:47 AM 55.4 °F 41.0 °F 58% 30.10 in 10.0 mi NNE 8.1 mph - N/A   Mostly Cloudy
2:52 AM 55.4 °F 41.0 °F 58% 30.10 in 10.0 mi NNE 9.2 mph - N/A   Light Drizzle
2:58 AM 54.9 °F 41.4 °F 60% 30.11 in 10.0 mi NNE 9.2 mph - 0.00 in   Light Drizzle
3:58 AM 54.1 °F 41.0 °F 61% 30.08 in 10.0 mi NNE 8.1 mph - 0.00 in   Light Drizzle
4:10 AM 53.6 °F 41.0 °F 62% 30.07 in 10.0 mi NNE 8.1 mph - N/A   Mostly Cloudy
4:16 AM 53.6 °F 41.0 °F 62% 30.06 in 10.0 mi NE 9.2 mph - N/A   Light Drizzle
4:58 AM 53.8 °F 41.2 °F 62% 30.08 in 10.0 mi NNE 9.2 mph - 0.00 in   Light Drizzle
5:54 AM 53.6 °F 41.0 °F 62% 30.09 in 10.0 mi NNE 9.2 mph - N/A   Mostly Cloudy
5:58 AM 53.4 °F 40.5 °F 61% 30.10 in 10.0 mi NE 9.2 mph - 0.00 in   Mostly Cloudy
6:00 AM 53.6 °F 41.0 °F 62% 30.08 in 10.0 mi NE 8.1 mph - N/A   Light Drizzle
6:44 AM 53.6 °F 39.2 °F 58% 30.11 in 10.0 mi NNE 8.1 mph - N/A   Overcast
6:48 AM 53.6 °F 39.2 °F 58% 30.11 in 10.0 mi NNE 8.1 mph - N/A   Light Drizzle
6:58 AM 53.2 °F 39.4 °F 59% 30.11 in 10.0 mi NE 6.9 mph - 0.00 in   Light Drizzle
7:58 AM 53.6 °F 38.1 °F 56% 30.12 in 10.0 mi NNE 9.2 mph - 0.00 in   Light Drizzle
8:58 AM 56.5 °F 36.0 °F 46% 30.12 in 10.0 mi NE 11.5 mph - 0.00 in   Mostly Cloudy
9:58 AM 57.9 °F 36.3 °F 44% 30.12 in 10.0 mi ENE 10.4 mph - 0.00 in   Mostly Cloudy
10:58 AM 59.9 °F 37.0 °F 43% 30.11 in 10.0 mi ENE 11.5 mph - N/A   Mostly Cloudy
11:58 AM 61.5 °F 37.8 °F 41% 30.10 in 10.0 mi East 9.2 mph - N/A   Mostly Cloudy
12:48 PM 62.6 °F 39.2 °F 42% 30.06 in 10.0 mi Variable 4.6 mph - N/A   Light Drizzle
12:58 PM 64.0 °F 39.4 °F 40% 30.07 in 10.0 mi East 4.6 mph - N/A   Mostly Cloudy
1:56 PM 64.4 °F 39.2 °F 40% 30.03 in 10.0 mi Variable 1.2 mph - N/A   Light Drizzle
1:58 PM 64.4 °F 39.2 °F 40% 30.04 in 10.0 mi North 2.3 mph - 0.00 in   Light Drizzle
2:12 PM 64.4 °F 39.2 °F 40% 30.02 in 10.0 mi Variable 1.2 mph - N/A   Mostly Cloudy
2:33 PM 64.4 °F 41.0 °F 42% 30.01 in 10.0 mi Calm Calm - N/A   Light Drizzle
2:52 PM 64.4 °F 42.8 °F 45% 30.00 in 10.0 mi South 5.8 mph - N/A   Mostly Cloudy
2:57 PM 64.4 °F 42.8 °F 45% 30.00 in 10.0 mi SSE 8.1 mph - N/A Rain Light Rain
2:58 PM 64.4 °F 43.0 °F 46% 30.01 in 10.0 mi SSE 8.1 mph - 0.00 in Rain Light Rain
3:16 PM 64.4 °F 42.8 °F 45% 29.99 in 10.0 mi South 6.9 mph - N/A   Mostly Cloudy
3:53 PM 64.4 °F 44.6 °F 49% 29.97 in 10.0 mi South 8.1 mph - N/A   Light Drizzle
3:58 PM 63.9 °F 43.9 °F 48% 29.99 in 10.0 mi South 6.9 mph - 0.00 in   Light Drizzle
4:08 PM 62.6 °F 44.6 °F 52% 29.98 in 10.0 mi South 8.1 mph - N/A   Mostly Cloudy
4:12 PM 62.6 °F 44.6 °F 52% 29.98 in 10.0 mi South 6.9 mph - N/A   Light Drizzle
4:13 PM 62.6 °F 44.6 °F 52% 29.97 in 10.0 mi South 8.1 mph - N/A   Mostly Cloudy
4:15 PM 62.6 °F 42.8 °F 48% 29.97 in 10.0 mi South 6.9 mph - N/A   Light Drizzle
4:37 PM 64.4 °F 44.6 °F 49% 29.96 in 10.0 mi South 5.8 mph - N/A   Partly Cloudy
4:40 PM 62.6 °F 44.6 °F 52% 29.96 in 10.0 mi Variable 5.8 mph - N/A   Light Drizzle
4:58 PM 63.9 °F 45.1 °F 51% 29.96 in 10.0 mi SSE 5.8 mph - 0.00 in   Light Drizzle
5:27 PM 62.6 °F 44.6 °F 52% 29.96 in 10.0 mi SSE 4.6 mph - N/A   Mostly Cloudy
5:34 PM 62.6 °F 44.6 °F 52% 29.96 in 10.0 mi Variable 5.8 mph - N/A   Light Drizzle
5:39 PM 62.6 °F 44.6 °F 52% 29.96 in 10.0 mi South 5.8 mph - N/A   Overcast
5:58 PM 62.2 °F 45.3 °F 54% 29.98 in 10.0 mi South 5.8 mph - 0.00 in   Overcast
5:59 PM 62.6 °F 44.6 °F 52% 29.97 in 10.0 mi South 5.8 mph - N/A   Light Drizzle
6:11 PM 62.6 °F 46.4 °F 55% 29.97 in 10.0 mi South 5.8 mph - N/A   Mostly Cloudy
6:38 PM 62.6 °F 46.4 °F 55% 29.97 in 10.0 mi South 5.8 mph - N/A   Light Drizzle
6:50 PM 60.8 °F 46.4 °F 59% 29.97 in 10.0 mi South 5.8 mph - N/A   Overcast
6:56 PM 60.8 °F 46.4 °F 59% 29.98 in 10.0 mi South 3.5 mph - N/A   Light Drizzle
6:58 PM 60.8 °F 46.4 °F 59% 29.99 in 10.0 mi South 4.6 mph - 0.00 in   Light Drizzle
7:17 PM 60.8 °F 46.4 °F 59% 29.97 in 10.0 mi South 5.8 mph - N/A   Overcast
7:58 PM 61.0 °F 47.8 °F 62% 29.97 in 10.0 mi SSW 3.5 mph - 0.00 in   Overcast
8:05 PM 60.8 °F 48.2 °F 63% 29.95 in 10.0 mi SSW 3.5 mph - N/A   Light Drizzle
8:58 PM 59.5 °F 47.5 °F 64% 29.98 in 10.0 mi NW 4.6 mph - 0.00 in   Light Drizzle
9:14 PM 59.0 °F 48.2 °F 67% 29.97 in 10.0 mi Calm Calm - N/A   Partly Cloudy
9:24 PM 59.0 °F 48.2 °F 67% 29.97 in 10.0 mi WNW 3.5 mph - N/A   Light Drizzle
9:48 PM 59.0 °F 48.2 °F 67% 29.96 in 10.0 mi Calm Calm - N/A   Clear
9:58 PM 59.4 °F 47.1 °F 64% 29.97 in 10.0 mi NW 2.3 mph - 0.00 in   Light Drizzle
10:58 PM 57.4 °F 47.8 °F 70% 29.97 in 10.0 mi Calm Calm - 0.00 in   Light Drizzle
11:05 PM 57.2 °F 46.4 °F 67% 29.96 in 10.0 mi Calm Calm - N/A   Scattered Clouds
11:08 PM 57.2 °F 46.4 °F 67% 29.96 in 10.0 mi Calm Calm - N/A   Light Drizzle
11:12 PM 57.2 °F 46.4 °F 67% 29.96 in 10.0 mi Calm Calm - N/A   Scattered Clouds
11:13 PM 57.2 °F 46.4 °F 67% 29.96 in 10.0 mi Calm Calm - N/A   Light Drizzle
11:58 PM 58.5 °F 46.6 °F 65% 30.00 in 10.0 mi NW 4.6 mph - 0.00 in   Light Drizzle